START_TIME,STEP,MOV.,E45,t_acc.,ALAR?,t_acc.,A12,t_acc.,A24,t_acc.
1979-07-13 15:10:02.620 ,2,0,0.,4.8,1632.,4.8,0.,4.8,0.,4.8
1979-07-13 15:10:07.420 ,2,0,0.,4.8,1344.,4.8,0.,4.8,0.,4.8
1979-07-13 15:10:12.220 ,2,0,0.,4.8,1440.,4.8,0.,4.8,0.,4.8
1979-07-13 15:10:17.020 ,2,0,0.,4.8,1536.,4.8,0.,4.8,0.,4.8
1979-07-13 15:10:21.820 ,2,0,0.,4.8,1376.,4.8,0.,4.8,0.,4.8
1979-07-13 15:10:26.620 ,1,0,0.,4.8,1248.,4.8,0.,4.8,0.,4.8
1979-07-13 15:10:31.420 ,1,0,0.,4.8,1472.,4.8,0.,4.8,0.,4.8
1979-07-13 15:10:36.220 ,1,0,0.,4.8,1760.,4.8,0.,4.8,0.,4.8
1979-07-13 15:10:41.020 ,1,0,0.,4.8,2176.,4.8,0.,4.8,0.,4.8
1979-07-13 15:10:45.820 ,1,0,0.,4.8,2016.,4.8,0.,4.8,0.,4.8
1979-07-13 15:10:50.620 ,1,0,0.,4.8,1760.,4.8,0.,4.8,0.,4.8
1979-07-13 15:10:55.420 ,1,0,0.,4.8,1888.,4.8,0.,4.8,0.,4.8
1979-07-13 15:11:00.220 ,1,0,0.,4.8,2048.,4.8,0.,4.8,0.,4.8
1979-07-13 15:11:05.020 ,1,0,0.,4.8,2368.,4.8,0.,4.8,0.,4.8
1979-07-13 15:11:09.820 ,1,0,0.,4.8,2240.,4.8,0.,4.8,0.,4.8
1979-07-13 15:11:14.620 ,0,0,0.,4.8,2368.,4.8,0.,4.8,0.,4.8
1979-07-13 15:11:19.420 ,0,0,0.,4.8,2752.,4.8,0.,4.8,0.,4.8
1979-07-13 15:11:24.220 ,0,0,0.,4.8,2944.,4.8,0.,4.8,0.,4.8
1979-07-13 15:11:29.020 ,0,0,0.,4.8,2880.,4.8,1.,4.8,0.,4.8
1979-07-13 15:11:33.820 ,0,0,0.,4.8,2752.,4.8,0.,4.8,0.,4.8
1979-07-13 15:11:38.620 ,0,0,0.,4.8,2944.,4.8,0.,4.8,0.,4.8
1979-07-13 15:11:43.420 ,0,0,0.,4.8,2624.,4.8,0.,4.8,0.,4.8
1979-07-13 15:11:48.220 ,0,0,0.,4.8,2944.,4.8,0.,4.8,0.,4.8
1979-07-13 15:11:53.020 ,0,0,0.,4.8,3008.,4.8,0.,4.8,0.,4.8
1979-07-13 15:11:57.820 ,0,0,0.,4.8,3136.,4.8,0.,4.8,0.,4.8
1979-07-13 15:12:02.620 ,0,0,0.,4.8,2880.,4.8,0.,4.8,0.,4.8
1979-07-13 15:12:07.420 ,0,0,0.,4.8,3072.,4.8,0.,4.8,0.,4.8
1979-07-13 15:12:12.220 ,0,0,0.,4.8,3008.,4.8,0.,4.8,0.,4.8
1979-07-13 15:12:17.020 ,0,0,0.,4.8,2944.,4.8,0.,4.8,0.,4.8
1979-07-13 15:12:21.820 ,0,0,0.,4.8,2816.,4.8,0.,4.8,0.,4.8
1979-07-13 15:12:26.620 ,0,0,0.,4.8,3072.,4.8,0.,4.8,0.,4.8
1979-07-13 15:12:31.420 ,0,0,0.,4.8,2944.,4.8,0.,4.8,0.,4.8
1979-07-13 15:12:36.220 ,0,0,0.,4.8,3008.,4.8,0.,4.8,0.,4.8
1979-07-13 15:12:41.020 ,0,0,0.,4.8,2944.,4.8,0.,4.8,0.,4.8
1979-07-13 15:12:45.820 ,0,0,0.,4.8,3072.,4.8,0.,4.8,0.,4.8
1979-07-13 15:12:50.620 ,1,0,0.,4.8,3136.,4.8,0.,4.8,0.,4.8
1979-07-13 15:12:55.420 ,1,0,0.,4.8,2944.,4.8,0.,4.8,0.,4.8
1979-07-13 15:13:00.220 ,1,0,0.,4.8,2752.,4.8,0.,4.8,0.,4.8
1979-07-13 15:13:05.020 ,1,0,0.,4.8,2752.,4.8,0.,4.8,0.,4.8
1979-07-13 15:13:09.820 ,1,0,0.,4.8,2816.,4.8,0.,4.8,0.,4.8
1979-07-13 15:13:14.620 ,1,0,0.,4.8,2624.,4.8,0.,4.8,0.,4.8
1979-07-13 15:13:19.420 ,1,0,0.,4.8,2688.,4.8,0.,4.8,0.,4.8
1979-07-13 15:13:24.220 ,1,0,0.,4.8,2688.,4.8,0.,4.8,0.,4.8
1979-07-13 15:13:29.020 ,1,0,0.,4.8,2816.,4.8,0.,4.8,0.,4.8
1979-07-13 15:13:33.820 ,1,0,0.,4.8,3200.,4.8,0.,4.8,0.,4.8
1979-07-13 15:13:38.620 ,2,0,0.,4.8,3136.,4.8,0.,4.8,0.,4.8
1979-07-13 15:13:43.420 ,2,0,0.,4.8,3200.,4.8,0.,4.8,0.,4.8
1979-07-13 15:13:48.220 ,2,0,0.,4.8,3008.,4.8,0.,4.8,0.,4.8
1979-07-13 15:13:53.020 ,2,0,0.,4.8,2496.,4.8,0.,4.8,0.,4.8
1979-07-13 15:13:57.820 ,2,0,0.,4.8,2496.,4.8,0.,4.8,0.,4.8
1979-07-13 15:14:02.620 ,2,0,0.,4.8,2752.,4.8,0.,4.8,0.,4.8
1979-07-13 15:14:07.420 ,2,0,0.,4.8,2560.,4.8,0.,4.8,0.,4.8
1979-07-13 15:14:12.220 ,2,0,0.,4.8,2496.,4.8,0.,4.8,0.,4.8
1979-07-13 15:14:17.020 ,2,0,0.,4.8,2304.,4.8,0.,4.8,0.,4.8
1979-07-13 15:14:21.820 ,2,0,0.,4.8,2496.,4.8,0.,4.8,0.,4.8
1979-07-13 15:14:26.620 ,3,0,0.,4.8,2688.,4.8,0.,4.8,0.,4.8
1979-07-13 15:14:31.420 ,3,0,0.,4.8,2560.,4.8,0.,4.8,0.,4.8
1979-07-13 15:14:36.220 ,3,0,0.,4.8,2688.,4.8,0.,4.8,0.,4.8
1979-07-13 15:14:41.020 ,3,0,0.,4.8,2944.,4.8,0.,4.8,0.,4.8
1979-07-13 15:14:45.820 ,3,0,0.,4.8,2944.,4.8,0.,4.8,0.,4.8
1979-07-13 15:14:50.620 ,3,0,0.,4.8,3008.,4.8,0.,4.8,0.,4.8
1979-07-13 15:14:55.420 ,3,0,0.,4.8,2688.,4.8,0.,4.8,0.,4.8
1979-07-13 15:15:00.220 ,3,0,0.,4.8,2880.,4.8,0.,4.8,0.,4.8
1979-07-13 15:15:05.020 ,3,0,0.,4.8,2880.,4.8,0.,4.8,0.,4.8
1979-07-13 15:15:09.820 ,3,0,0.,4.8,3264.,4.8,0.,4.8,0.,4.8
1979-07-13 15:15:14.620 ,4,0,0.,4.8,3456.,4.8,0.,4.8,0.,4.8
1979-07-13 15:15:19.420 ,4,0,0.,4.8,248.,4.8,0.,4.8,0.,4.8
1979-07-13 15:15:24.220 ,4,0,0.,4.8,1344.,4.8,0.,4.8,0.,4.8
1979-07-13 15:15:29.020 ,4,0,0.,4.8,1504.,4.8,0.,4.8,0.,4.8
1979-07-13 15:15:33.820 ,4,0,0.,4.8,1632.,4.8,0.,4.8,0.,4.8
1979-07-13 15:15:38.620 ,4,0,0.,4.8,1184.,4.8,0.,4.8,0.,4.8
1979-07-13 15:15:43.420 ,4,0,0.,4.8,1312.,4.8,0.,4.8,0.,4.8
1979-07-13 15:15:48.220 ,4,0,0.,4.8,1184.,4.8,0.,4.8,0.,4.8
1979-07-13 15:15:53.020 ,4,0,0.,4.8,1152.,4.8,0.,4.8,0.,4.8
1979-07-13 15:15:57.820 ,4,0,0.,4.8,1280.,4.8,1.,4.8,0.,4.8
1979-07-13 15:16:02.620 ,5,0,0.,4.8,1088.,4.8,0.,4.8,0.,4.8
1979-07-13 15:16:07.420 ,5,0,0.,4.8,1280.,4.8,0.,4.8,0.,4.8
1979-07-13 15:16:12.220 ,5,0,0.,4.8,1472.,4.8,0.,4.8,0.,4.8
1979-07-13 15:16:17.020 ,5,0,0.,4.8,1408.,4.8,0.,4.8,0.,4.8
1979-07-13 15:16:21.820 ,5,0,0.,4.8,1600.,4.8,1.,4.8,0.,4.8
1979-07-13 15:16:26.620 ,5,0,0.,4.8,1600.,4.8,0.,4.8,0.,4.8
1979-07-13 15:16:31.420 ,5,0,0.,4.8,1536.,4.8,0.,4.8,0.,4.8
1979-07-13 15:16:36.220 ,5,0,0.,4.8,2048.,4.8,0.,4.8,0.,4.8
1979-07-13 15:16:41.020 ,5,0,0.,4.8,1664.,4.8,0.,4.8,0.,4.8
1979-07-13 15:16:45.820 ,5,0,0.,4.8,1920.,4.8,0.,4.8,0.,4.8
1979-07-13 15:16:50.620 ,6,0,0.,4.8,1760.,4.8,0.,4.8,0.,4.8
1979-07-13 15:16:55.420 ,6,0,0.,4.8,912.,4.8,0.,4.8,0.,4.8
1979-07-13 15:17:00.220 ,6,0,0.,4.8,512.,4.8,0.,4.8,0.,4.8
1979-07-13 15:17:05.020 ,6,0,0.,4.8,408.,4.8,0.,4.8,0.,4.8
1979-07-13 15:17:09.820 ,6,0,0.,4.8,264.,4.8,0.,4.8,0.,4.8
1979-07-13 15:17:14.620 ,6,0,0.,4.8,3904.,4.8,0.,4.8,0.,4.8
1979-07-13 15:17:19.420 ,6,0,0.,4.8,3712.,4.8,1.,4.8,0.,4.8
1979-07-13 15:17:24.220 ,6,0,0.,4.8,3712.,4.8,0.,4.8,0.,4.8
1979-07-13 15:17:29.020 ,6,0,0.,4.8,3520.,4.8,0.,4.8,0.,4.8
1979-07-13 15:17:33.820 ,6,0,0.,4.8,4032.,4.8,0.,4.8,0.,4.8
1979-07-13 15:17:38.620 ,7,0,0.,4.8,208.,4.8,0.,4.8,0.,4.8
1979-07-13 15:17:43.420 ,7,0,0.,4.8,3584.,4.8,0.,4.8,0.,4.8
1979-07-13 15:17:48.220 ,7,0,0.,4.8,3200.,4.8,0.,4.8,0.,4.8
1979-07-13 15:17:53.020 ,7,0,0.,4.8,3392.,4.8,0.,4.8,0.,4.8
1979-07-13 15:17:57.820 ,7,0,0.,4.8,3392.,4.8,0.,4.8,0.,4.8
1979-07-13 15:18:02.620 ,7,0,0.,4.8,3072.,4.8,0.,4.8,0.,4.8
1979-07-13 15:18:07.420 ,7,0,0.,4.8,3520.,4.8,0.,4.8,0.,4.8
1979-07-13 15:18:12.220 ,7,0,0.,4.8,3200.,4.8,0.,4.8,0.,4.8
1979-07-13 15:18:17.020 ,7,0,0.,4.8,3456.,4.8,0.,4.8,0.,4.8
1979-07-13 15:18:21.820 ,7,0,0.,4.8,3584.,4.8,0.,4.8,0.,4.8
1979-07-13 15:18:26.620 ,7,0,0.,4.8,3456.,4.8,0.,4.8,0.,4.8
1979-07-13 15:18:31.420 ,7,0,0.,4.8,3776.,4.8,0.,4.8,0.,4.8
1979-07-13 15:18:36.220 ,7,0,0.,4.8,3776.,4.8,0.,4.8,0.,4.8
1979-07-13 15:18:41.020 ,7,0,0.,4.8,3712.,4.8,0.,4.8,0.,4.8
1979-07-13 15:18:45.820 ,7,0,0.,4.8,3712.,4.8,0.,4.8,0.,4.8
1979-07-13 15:18:50.620 ,7,0,0.,4.8,3456.,4.8,0.,4.8,0.,4.8
1979-07-13 15:18:55.420 ,7,0,0.,4.8,3776.,4.8,0.,4.8,0.,4.8
1979-07-13 15:19:00.220 ,7,0,0.,4.8,57.,4.8,0.,4.8,0.,4.8
1979-07-13 15:19:05.020 ,7,0,0.,4.8,304.,4.8,0.,4.8,0.,4.8
1979-07-13 15:19:09.820 ,7,0,0.,4.8,384.,4.8,0.,4.8,0.,4.8
1979-07-13 15:19:14.620 ,6,0,0.,4.8,328.,4.8,0.,4.8,0.,4.8
1979-07-13 15:19:19.420 ,6,0,0.,4.8,608.,4.8,0.,4.8,0.,4.8
1979-07-13 15:19:24.220 ,6,0,0.,4.8,800.,4.8,1.,4.8,0.,4.8
1979-07-13 15:19:29.020 ,6,0,0.,4.8,1088.,4.8,0.,4.8,0.,4.8
1979-07-13 15:19:33.820 ,6,0,0.,4.8,608.,4.8,0.,4.8,0.,4.8
1979-07-13 15:19:38.620 ,6,0,0.,4.8,1152.,4.8,0.,4.8,0.,4.8
1979-07-13 15:19:43.420 ,6,0,0.,4.8,784.,4.8,0.,4.8,0.,4.8
1979-07-13 15:19:48.220 ,6,0,0.,4.8,264.,4.8,0.,4.8,0.,4.8
1979-07-13 15:19:53.020 ,6,0,0.,4.8,272.,4.8,0.,4.8,0.,4.8
1979-07-13 15:19:57.820 ,6,0,0.,4.8,368.,4.8,0.,4.8,0.,4.8
1979-07-13 15:20:02.620 ,5,0,0.,4.8,336.,4.8,0.,4.8,0.,4.8
1979-07-13 15:20:07.420 ,5,0,0.,4.8,944.,4.8,0.,4.8,0.,4.8
1979-07-13 15:20:12.220 ,5,0,0.,4.8,1008.,4.8,0.,4.8,0.,4.8
1979-07-13 15:20:17.020 ,5,0,0.,4.8,1024.,4.8,0.,4.8,0.,4.8
1979-07-13 15:20:21.820 ,5,0,0.,4.8,1536.,4.8,0.,4.8,0.,4.8
1979-07-13 15:20:26.620 ,5,0,0.,4.8,1184.,4.8,0.,4.8,0.,4.8
1979-07-13 15:20:31.420 ,5,0,0.,4.8,608.,4.8,1.,4.8,0.,4.8
1979-07-13 15:20:36.220 ,5,0,0.,4.8,304.,4.8,0.,4.8,0.,4.8
1979-07-13 15:20:41.020 ,5,0,0.,4.8,816.,4.8,0.,4.8,0.,4.8
1979-07-13 15:20:45.820 ,5,0,0.,4.8,376.,4.8,0.,4.8,0.,4.8
1979-07-13 15:20:50.620 ,4,0,0.,4.8,480.,4.8,0.,4.8,0.,4.8
1979-07-13 15:20:55.420 ,4,0,0.,4.8,488.,4.8,0.,4.8,0.,4.8
1979-07-13 15:21:00.220 ,4,0,0.,4.8,344.,4.8,0.,4.8,0.,4.8
1979-07-13 15:21:05.020 ,4,0,0.,4.8,592.,4.8,0.,4.8,0.,4.8
1979-07-13 15:21:09.820 ,4,0,0.,4.8,1008.,4.8,1.,4.8,0.,4.8
1979-07-13 15:21:14.620 ,4,0,0.,4.8,1120.,4.8,0.,4.8,0.,4.8
1979-07-13 15:21:19.420 ,4,0,0.,4.8,848.,4.8,0.,4.8,0.,4.8
1979-07-13 15:21:24.220 ,4,0,0.,4.8,1056.,4.8,0.,4.8,0.,4.8
1979-07-13 15:21:29.020 ,4,0,0.,4.8,1088.,4.8,1.,4.8,0.,4.8
1979-07-13 15:21:33.820 ,4,0,0.,4.8,992.,4.8,0.,4.8,0.,4.8
1979-07-13 15:21:38.620 ,3,0,0.,4.8,928.,4.8,0.,4.8,0.,4.8
1979-07-13 15:21:43.420 ,3,0,0.,4.8,3776.,4.8,0.,4.8,0.,4.8
1979-07-13 15:21:48.220 ,3,0,0.,4.8,2432.,4.8,0.,4.8,0.,4.8
1979-07-13 15:21:53.020 ,3,0,0.,4.8,2624.,4.8,0.,4.8,0.,4.8
1979-07-13 15:21:57.820 ,3,0,0.,4.8,2624.,4.8,0.,4.8,0.,4.8
1979-07-13 15:22:02.620 ,3,0,0.,4.8,2432.,4.8,0.,4.8,0.,4.8
1979-07-13 15:22:07.420 ,3,0,0.,4.8,2688.,4.8,0.,4.8,0.,4.8
1979-07-13 15:22:12.220 ,3,0,0.,4.8,2496.,4.8,0.,4.8,0.,4.8
1979-07-13 15:22:17.020 ,3,0,0.,4.8,2624.,4.8,0.,4.8,0.,4.8
1979-07-13 15:22:21.820 ,3,0,0.,4.8,2560.,4.8,0.,4.8,0.,4.8
1979-07-13 15:22:26.620 ,2,0,0.,4.8,2624.,4.8,0.,4.8,0.,4.8
1979-07-13 15:22:31.420 ,2,0,0.,4.8,2752.,4.8,0.,4.8,0.,4.8
1979-07-13 15:22:36.220 ,2,0,0.,4.8,3008.,4.8,0.,4.8,0.,4.8
1979-07-13 15:22:41.020 ,2,0,0.,4.8,2496.,4.8,1.,4.8,0.,4.8
1979-07-13 15:22:45.820 ,2,0,0.,4.8,2944.,4.8,0.,4.8,0.,4.8
1979-07-13 15:22:50.620 ,2,0,0.,4.8,2944.,4.8,0.,4.8,0.,4.8
1979-07-13 15:22:55.420 ,2,0,0.,4.8,3200.,4.8,0.,4.8,0.,4.8
1979-07-13 15:23:00.220 ,2,0,0.,4.8,3008.,4.8,0.,4.8,0.,4.8
1979-07-13 15:23:05.020 ,2,0,0.,4.8,3072.,4.8,0.,4.8,0.,4.8
1979-07-13 15:23:09.820 ,2,0,0.,4.8,2816.,4.8,0.,4.8,0.,4.8
1979-07-13 15:23:14.620 ,1,0,0.,4.8,2688.,4.8,0.,4.8,0.,4.8
1979-07-13 15:23:19.420 ,1,0,0.,4.8,2624.,4.8,0.,4.8,0.,4.8
1979-07-13 15:23:24.220 ,1,0,0.,4.8,2560.,4.8,0.,4.8,0.,4.8
1979-07-13 15:23:29.020 ,1,0,0.,4.8,2560.,4.8,0.,4.8,0.,4.8
1979-07-13 15:23:33.820 ,1,0,0.,4.8,2752.,4.8,0.,4.8,0.,4.8
1979-07-13 15:23:38.620 ,1,0,0.,4.8,3008.,4.8,0.,4.8,0.,4.8
1979-07-13 15:23:43.420 ,1,0,0.,4.8,3136.,4.8,0.,4.8,0.,4.8
1979-07-13 15:23:48.220 ,1,0,0.,4.8,3328.,4.8,0.,4.8,0.,4.8
1979-07-13 15:23:53.020 ,1,0,0.,4.8,3456.,4.8,0.,4.8,0.,4.8
1979-07-13 15:23:57.820 ,1,0,0.,4.8,3200.,4.8,0.,4.8,0.,4.8
1979-07-13 15:24:02.620 ,0,0,0.,4.8,3264.,4.8,0.,4.8,0.,4.8
1979-07-13 15:24:07.420 ,0,0,0.,4.8,3200.,4.8,0.,4.8,0.,4.8
1979-07-13 15:24:12.220 ,0,0,0.,4.8,3520.,4.8,0.,4.8,0.,4.8
1979-07-13 15:24:17.020 ,0,0,0.,4.8,3520.,4.8,0.,4.8,0.,4.8
1979-07-13 15:24:21.820 ,0,0,0.,4.8,3200.,4.8,0.,4.8,0.,4.8
1979-07-13 15:24:26.620 ,0,0,0.,4.8,3328.,4.8,0.,4.8,0.,4.8
1979-07-13 15:24:31.420 ,0,0,0.,4.8,3264.,4.8,0.,4.8,0.,4.8
1979-07-13 15:24:36.220 ,0,0,0.,4.8,3072.,4.8,0.,4.8,0.,4.8
1979-07-13 15:24:41.020 ,0,0,0.,4.8,2880.,4.8,0.,4.8,0.,4.8
1979-07-13 15:24:45.820 ,0,0,0.,4.8,3008.,4.8,0.,4.8,0.,4.8
1979-07-13 15:24:50.620 ,0,0,0.,4.8,3072.,4.8,0.,4.8,0.,4.8
1979-07-13 15:24:55.420 ,0,0,0.,4.8,2688.,4.8,0.,4.8,0.,4.8
1979-07-13 15:25:00.220 ,0,0,0.,4.8,2816.,4.8,0.,4.8,0.,4.8
1979-07-13 15:25:05.020 ,0,0,0.,4.8,2432.,4.8,0.,4.8,0.,4.8
1979-07-13 15:25:09.820 ,0,0,0.,4.8,2432.,4.8,0.,4.8,0.,4.8
1979-07-13 15:25:14.620 ,0,0,0.,4.8,1984.,4.8,0.,4.8,0.,4.8
1979-07-13 15:25:19.420 ,0,0,0.,4.8,1856.,4.8,0.,4.8,0.,4.8
1979-07-13 15:25:24.220 ,0,0,0.,4.8,2048.,4.8,0.,4.8,0.,4.8
1979-07-13 15:25:29.020 ,0,0,0.,4.8,2016.,4.8,0.,4.8,0.,4.8
1979-07-13 15:25:33.820 ,0,0,0.,4.8,1792.,4.8,0.,4.8,0.,4.8
1979-07-13 15:25:38.620 ,1,0,0.,4.8,1984.,4.8,0.,4.8,0.,4.8
1979-07-13 15:25:43.420 ,1,0,0.,4.8,1536.,4.8,0.,4.8,0.,4.8
1979-07-13 15:25:48.220 ,1,0,0.,4.8,1376.,4.8,0.,4.8,0.,4.8
1979-07-13 15:25:53.020 ,1,0,0.,4.8,1472.,4.8,0.,4.8,0.,4.8
1979-07-13 15:25:57.820 ,1,0,0.,4.8,1440.,4.8,0.,4.8,0.,4.8
1979-07-13 15:26:02.620 ,1,0,0.,4.8,1344.,4.8,0.,4.8,0.,4.8
1979-07-13 15:26:07.420 ,1,0,0.,4.8,1184.,4.8,0.,4.8,0.,4.8
1979-07-13 15:26:12.220 ,1,0,0.,4.8,1184.,4.8,0.,4.8,0.,4.8
1979-07-13 15:26:17.020 ,1,0,0.,4.8,1568.,4.8,0.,4.8,0.,4.8
1979-07-13 15:26:21.820 ,1,0,0.,4.8,1408.,4.8,0.,4.8,0.,4.8
1979-07-13 15:26:26.620 ,2,0,0.,4.8,1472.,4.8,0.,4.8,0.,4.8
1979-07-13 15:26:31.420 ,2,0,0.,4.8,1248.,4.8,0.,4.8,0.,4.8
1979-07-13 15:26:36.220 ,2,0,0.,4.8,1184.,4.8,1.,4.8,0.,4.8
1979-07-13 15:26:41.020 ,2,0,0.,4.8,1504.,4.8,0.,4.8,0.,4.8
1979-07-13 15:26:45.820 ,2,0,0.,4.8,1888.,4.8,0.,4.8,0.,4.8
1979-07-13 15:26:50.620 ,2,0,0.,4.8,1792.,4.8,0.,4.8,0.,4.8
1979-07-13 15:26:55.420 ,2,0,0.,4.8,1728.,4.8,0.,4.8,0.,4.8
1979-07-13 15:27:00.220 ,2,0,0.,4.8,1824.,4.8,0.,4.8,0.,4.8
1979-07-13 15:27:05.020 ,2,0,0.,4.8,2304.,4.8,0.,4.8,0.,4.8
1979-07-13 15:27:09.820 ,2,0,0.,4.8,1920.,4.8,0.,4.8,0.,4.8
1979-07-13 15:27:14.620 ,3,0,0.,4.8,1920.,4.8,0.,4.8,0.,4.8
1979-07-13 15:27:19.420 ,3,0,0.,4.8,1760.,4.8,0.,4.8,0.,4.8
1979-07-13 15:27:24.220 ,3,0,0.,4.8,2016.,4.8,0.,4.8,0.,4.8
1979-07-13 15:27:29.020 ,3,0,0.,4.8,2048.,4.8,0.,4.8,0.,4.8
1979-07-13 15:27:33.820 ,3,0,0.,4.8,1888.,4.8,0.,4.8,0.,4.8
1979-07-13 15:27:38.620 ,3,0,0.,4.8,2016.,4.8,0.,4.8,0.,4.8
1979-07-13 15:27:43.420 ,3,0,0.,4.8,1952.,4.8,0.,4.8,0.,4.8
1979-07-13 15:27:48.220 ,3,0,0.,4.8,1824.,4.8,0.,4.8,0.,4.8
1979-07-13 15:27:53.020 ,3,0,0.,4.8,1344.,4.8,0.,4.8,0.,4.8
1979-07-13 15:27:57.820 ,3,0,0.,4.8,1376.,4.8,0.,4.8,0.,4.8
1979-07-13 15:28:02.620 ,4,0,0.,4.8,1152.,4.8,0.,4.8,0.,4.8
1979-07-13 15:28:07.420 ,4,0,0.,4.8,2048.,4.8,0.,4.8,0.,4.8
1979-07-13 15:28:12.220 ,4,0,0.,4.8,2496.,4.8,0.,4.8,0.,4.8
1979-07-13 15:28:17.020 ,4,0,0.,4.8,2560.,4.8,0.,4.8,0.,4.8
1979-07-13 15:28:21.820 ,4,0,0.,4.8,2624.,4.8,0.,4.8,0.,4.8
1979-07-13 15:28:26.620 ,4,0,0.,4.8,2624.,4.8,0.,4.8,0.,4.8
1979-07-13 15:28:31.420 ,4,0,0.,4.8,2560.,4.8,0.,4.8,0.,4.8
1979-07-13 15:28:36.220 ,4,0,0.,4.8,2560.,4.8,0.,4.8,0.,4.8
1979-07-13 15:28:41.020 ,4,0,0.,4.8,2688.,4.8,0.,4.8,0.,4.8
1979-07-13 15:28:45.820 ,4,0,0.,4.8,2624.,4.8,0.,4.8,0.,4.8
1979-07-13 15:28:50.620 ,5,0,0.,4.8,2752.,4.8,0.,4.8,0.,4.8
1979-07-13 15:28:55.420 ,5,0,0.,4.8,3072.,4.8,0.,4.8,0.,4.8
1979-07-13 15:29:00.220 ,5,0,0.,4.8,3136.,4.8,0.,4.8,0.,4.8
1979-07-13 15:29:05.020 ,5,0,0.,4.8,2880.,4.8,0.,4.8,0.,4.8
1979-07-13 15:29:09.820 ,5,0,0.,4.8,2944.,4.8,0.,4.8,0.,4.8
1979-07-13 15:29:14.620 ,5,0,0.,4.8,2944.,4.8,0.,4.8,0.,4.8
1979-07-13 15:29:19.420 ,5,0,0.,4.8,3264.,4.8,0.,4.8,0.,4.8
1979-07-13 15:29:24.220 ,5,0,0.,4.8,3584.,4.8,0.,4.8,0.,4.8
1979-07-13 15:29:29.020 ,5,0,0.,4.8,3584.,4.8,0.,4.8,0.,4.8
1979-07-13 15:29:33.820 ,5,0,0.,4.8,3264.,4.8,0.,4.8,0.,4.8
1979-07-13 15:29:38.620 ,6,0,0.,4.8,3840.,4.8,0.,4.8,0.,4.8
1979-07-13 15:29:43.420 ,6,0,0.,4.8,3200.,4.8,0.,4.8,0.,4.8
1979-07-13 15:29:48.220 ,6,0,0.,4.8,2624.,4.8,0.,4.8,0.,4.8
1979-07-13 15:29:53.020 ,6,0,0.,4.8,2688.,4.8,0.,4.8,0.,4.8
1979-07-13 15:29:57.820 ,6,0,0.,4.8,3200.,4.8,0.,4.8,0.,4.8
1979-07-13 15:30:02.620 ,6,0,0.,4.8,3904.,4.8,0.,4.8,0.,4.8
1979-07-13 15:30:07.420 ,6,0,0.,4.8,3456.,4.8,1.,4.8,0.,4.8
1979-07-13 15:30:12.220 ,6,0,0.,4.8,3200.,4.8,0.,4.8,0.,4.8
1979-07-13 15:30:17.020 ,6,0,0.,4.8,3072.,4.8,0.,4.8,0.,4.8
1979-07-13 15:30:21.820 ,6,0,0.,4.8,3072.,4.8,0.,4.8,0.,4.8
1979-07-13 15:30:26.620 ,7,0,0.,4.8,3328.,4.8,0.,4.8,0.,4.8
1979-07-13 15:30:31.420 ,7,0,0.,4.8,2752.,4.8,0.,4.8,0.,4.8
1979-07-13 15:30:36.220 ,7,0,0.,4.8,2816.,4.8,0.,4.8,0.,4.8
1979-07-13 15:30:41.020 ,7,0,0.,4.8,2688.,4.8,0.,4.8,0.,4.8
1979-07-13 15:30:45.820 ,7,0,0.,4.8,2880.,4.8,0.,4.8,0.,4.8
1979-07-13 15:30:50.620 ,7,0,0.,4.8,2816.,4.8,0.,4.8,0.,4.8
1979-07-13 15:30:55.420 ,7,0,0.,4.8,2624.,4.8,0.,4.8,0.,4.8
1979-07-13 15:31:00.220 ,7,0,0.,4.8,2624.,4.8,0.,4.8,0.,4.8
1979-07-13 15:31:05.020 ,7,0,0.,4.8,2624.,4.8,0.,4.8,0.,4.8
1979-07-13 15:31:09.820 ,7,0,0.,4.8,2112.,4.8,0.,4.8,0.,4.8
1979-07-13 15:31:14.620 ,3,1,0.,4.8,2496.,4.8,0.,4.8,0.,4.8
1979-07-13 15:31:19.420 ,3,1,0.,4.8,3072.,4.8,0.,4.8,0.,4.8
1979-07-13 15:31:24.220 ,3,1,0.,4.8,3584.,4.8,0.,4.8,0.,4.8
1979-07-13 15:31:29.020 ,3,1,0.,4.8,3392.,4.8,0.,4.8,0.,4.8
1979-07-13 15:31:33.820 ,3,1,0.,4.8,1984.,4.8,0.,4.8,0.,4.8
1979-07-13 15:31:38.620 ,0,1,0.,4.8,1600.,4.8,0.,4.8,0.,4.8
1979-07-13 15:31:43.420 ,0,1,0.,4.8,1696.,4.8,0.,4.8,0.,4.8
1979-07-13 15:31:48.220 ,0,1,0.,4.8,2240.,4.8,0.,4.8,0.,4.8
1979-07-13 15:31:53.020 ,0,1,0.,4.8,2496.,4.8,0.,4.8,0.,4.8
1979-07-13 15:31:57.820 ,0,1,0.,4.8,2496.,4.8,0.,4.8,0.,4.8
1979-07-13 15:32:02.620 ,4,1,0.,4.8,2112.,4.8,0.,4.8,0.,4.8
1979-07-13 15:32:07.420 ,4,1,0.,4.8,1856.,4.8,0.,4.8,0.,4.8
1979-07-13 15:32:12.220 ,4,1,0.,4.8,1792.,4.8,0.,4.8,0.,4.8
1979-07-13 15:32:17.020 ,4,1,0.,4.8,1984.,4.8,0.,4.8,0.,4.8
1979-07-13 15:32:21.820 ,4,1,0.,4.8,4032.,4.8,0.,4.8,0.,4.8
1979-07-13 15:32:26.620 ,7,1,0.,4.8,1152.,4.8,0.,4.8,0.,4.8
1979-07-13 15:32:31.420 ,7,1,0.,4.8,944.,4.8,0.,4.8,0.,4.8
1979-07-13 15:32:36.220 ,7,1,0.,4.8,12.,4.8,0.,4.8,0.,4.8
1979-07-13 15:32:41.020 ,7,1,0.,4.8,4032.,4.8,0.,4.8,0.,4.8
1979-07-13 15:32:45.820 ,7,1,0.,4.8,4032.,4.8,0.,4.8,0.,4.8
1979-07-13 15:32:50.620 ,3,1,0.,4.8,544.,4.8,0.,4.8,0.,4.8
1979-07-13 15:32:55.420 ,3,1,0.,4.8,1696.,4.8,0.,4.8,0.,4.8
1979-07-13 15:33:00.220 ,3,1,0.,4.8,2176.,4.8,2.,4.8,0.,4.8
1979-07-13 15:33:05.020 ,3,1,0.,4.8,1824.,4.8,0.,4.8,0.,4.8
1979-07-13 15:33:09.820 ,3,1,0.,4.8,4032.,4.8,0.,4.8,0.,4.8
1979-07-13 15:33:14.620 ,0,1,0.,4.8,74.,4.8,0.,4.8,0.,4.8
1979-07-13 15:33:19.420 ,0,1,0.,4.8,512.,4.8,0.,4.8,0.,4.8
1979-07-13 15:33:24.220 ,0,1,0.,4.8,688.,4.8,0.,4.8,0.,4.8
1979-07-13 15:33:29.020 ,0,1,0.,4.8,1088.,4.8,0.,4.8,0.,4.8
1979-07-13 15:33:33.820 ,0,1,0.,4.8,1152.,4.8,0.,4.8,0.,4.8
1979-07-13 15:33:38.620 ,4,1,0.,4.8,1024.,4.8,0.,4.8,0.,4.8
1979-07-13 15:33:43.420 ,4,1,0.,4.8,432.,4.8,0.,4.8,0.,4.8
1979-07-13 15:33:48.220 ,4,1,0.,4.8,352.,4.8,0.,4.8,0.,4.8
1979-07-13 15:33:53.020 ,4,1,0.,4.8,456.,4.8,0.,4.8,0.,4.8
1979-07-13 15:33:57.820 ,4,1,0.,4.8,2432.,4.8,0.,4.8,0.,4.8
1979-07-13 15:34:02.620 ,7,1,0.,4.8,3200.,4.8,0.,4.8,0.,4.8
1979-07-13 15:34:07.420 ,7,1,0.,4.8,2496.,4.8,1.,4.8,0.,4.8
1979-07-13 15:34:12.220 ,7,1,0.,4.8,1440.,4.8,0.,4.8,0.,4.8
1979-07-13 15:34:17.020 ,7,1,0.,4.8,736.,4.8,0.,4.8,0.,4.8
1979-07-13 15:34:21.820 ,7,1,0.,4.8,464.,4.8,0.,4.8,0.,4.8
1979-07-13 15:34:26.620 ,0,0,0.,4.8,1184.,4.8,0.,4.8,0.,4.8
1979-07-13 15:34:31.420 ,0,0,0.,4.8,2176.,4.8,0.,4.8,0.,4.8
1979-07-13 15:34:36.220 ,0,0,0.,4.8,2560.,4.8,0.,4.8,0.,4.8
1979-07-13 15:34:41.020 ,0,0,0.,4.8,2560.,4.8,0.,4.8,0.,4.8
1979-07-13 15:34:45.820 ,0,0,0.,4.8,448.,4.8,0.,4.8,0.,4.8
1979-07-13 15:34:50.620 ,0,0,0.,4.8,736.,4.8,0.,4.8,0.,4.8
1979-07-13 15:34:55.420 ,0,0,0.,4.8,992.,4.8,0.,4.8,0.,4.8
1979-07-13 15:35:00.220 ,0,0,0.,4.8,1056.,4.8,0.,4.8,0.,4.8
1979-07-13 15:35:05.020 ,0,0,0.,4.8,1184.,4.8,0.,4.8,0.,4.8
1979-07-13 15:35:09.820 ,0,0,0.,4.8,1184.,4.8,0.,4.8,0.,4.8
1979-07-13 15:35:14.620 ,4,1,0.,4.8,880.,4.8,0.,4.8,0.,4.8
1979-07-13 15:35:19.420 ,4,1,0.,4.8,624.,4.8,0.,4.8,0.,4.8
1979-07-13 15:35:24.220 ,4,1,0.,4.8,36.,4.8,0.,4.8,0.,4.8
1979-07-13 15:35:29.020 ,4,1,0.,4.8,148.,4.8,0.,4.8,0.,4.8
1979-07-13 15:35:33.820 ,4,1,0.,4.8,2112.,4.8,0.,4.8,0.,4.8
1979-07-13 15:35:38.620 ,7,1,0.,4.8,2432.,4.8,0.,4.8,0.,4.8
1979-07-13 15:35:43.420 ,7,1,0.,4.8,2112.,4.8,0.,4.8,0.,4.8
1979-07-13 15:35:48.220 ,7,1,0.,4.8,1184.,4.8,0.,4.8,0.,4.8
1979-07-13 15:35:53.020 ,7,1,0.,4.8,704.,4.8,0.,4.8,0.,4.8
1979-07-13 15:35:57.820 ,7,1,0.,4.8,376.,4.8,0.,4.8,0.,4.8
1979-07-13 15:36:02.620 ,3,1,0.,4.8,1152.,4.8,0.,4.8,0.,4.8
1979-07-13 15:36:07.420 ,3,1,0.,4.8,1792.,4.8,0.,4.8,0.,4.8
1979-07-13 15:36:12.220 ,3,1,0.,4.8,2368.,4.8,0.,4.8,0.,4.8
1979-07-13 15:36:17.020 ,3,1,0.,4.8,1824.,4.8,0.,4.8,0.,4.8
1979-07-13 15:36:21.820 ,3,1,0.,4.8,3776.,4.8,0.,4.8,0.,4.8
1979-07-13 15:36:26.620 ,0,1,0.,4.8,78.,4.8,0.,4.8,0.,4.8
1979-07-13 15:36:31.420 ,0,1,0.,4.8,61.,4.8,0.,4.8,0.,4.8
1979-07-13 15:36:36.220 ,0,1,0.,4.8,640.,4.8,0.,4.8,0.,4.8
1979-07-13 15:36:41.020 ,0,1,0.,4.8,864.,4.8,0.,4.8,0.,4.8
1979-07-13 15:36:45.820 ,0,1,0.,4.8,864.,4.8,0.,4.8,0.,4.8
1979-07-13 15:36:50.620 ,4,1,0.,4.8,624.,4.8,1.,4.8,0.,4.8
1979-07-13 15:36:55.420 ,4,1,0.,4.8,504.,4.8,0.,4.8,0.,4.8
1979-07-13 15:37:00.220 ,4,1,0.,4.8,3840.,4.8,0.,4.8,0.,4.8
1979-07-13 15:37:05.020 ,4,1,0.,4.8,368.,4.8,0.,4.8,0.,4.8
1979-07-13 15:37:09.820 ,4,1,0.,4.8,2016.,4.8,0.,4.8,0.,4.8
1979-07-13 15:37:14.620 ,7,1,0.,4.8,2624.,4.8,0.,4.8,0.,4.8
1979-07-13 15:37:19.420 ,7,1,0.,4.8,1696.,4.8,0.,4.8,0.,4.8
1979-07-13 15:37:24.220 ,7,1,0.,4.8,864.,4.8,0.,4.8,0.,4.8
1979-07-13 15:37:29.020 ,7,1,0.,4.8,7.,4.8,0.,4.8,0.,4.8
1979-07-13 15:37:33.820 ,7,1,0.,4.8,3904.,4.8,0.,4.8,0.,4.8
1979-07-13 15:37:38.620 ,3,1,0.,4.8,30.,4.8,0.,4.8,0.,4.8
1979-07-13 15:37:43.420 ,3,1,0.,4.8,672.,4.8,0.,4.8,0.,4.8
1979-07-13 15:37:48.220 ,3,1,0.,4.8,768.,4.8,0.,4.8,0.,4.8
1979-07-13 15:37:53.020 ,3,1,0.,4.8,42.,4.8,0.,4.8,0.,4.8
1979-07-13 15:37:57.820 ,3,1,0.,4.8,2752.,4.8,0.,4.8,0.,4.8
1979-07-13 15:38:02.620 ,0,1,0.,4.8,2560.,4.8,0.,4.8,0.,4.8
1979-07-13 15:38:07.420 ,0,1,0.,4.8,2304.,4.8,0.,4.8,0.,4.8
1979-07-13 15:38:12.220 ,0,1,0.,4.8,2240.,4.8,0.,4.8,0.,4.8
1979-07-13 15:38:17.020 ,0,1,0.,4.8,2560.,4.8,0.,4.8,0.,4.8
1979-07-13 15:38:21.820 ,0,1,0.,4.8,2752.,4.8,0.,4.8,0.,4.8
1979-07-13 15:38:26.620 ,4,1,0.,4.8,2432.,4.8,0.,4.8,0.,4.8
1979-07-13 15:38:31.420 ,4,1,0.,4.8,2048.,4.8,0.,4.8,0.,4.8
1979-07-13 15:38:36.220 ,4,1,0.,4.8,2048.,4.8,0.,4.8,0.,4.8
1979-07-13 15:38:41.020 ,4,1,0.,4.8,2112.,4.8,0.,4.8,0.,4.8
1979-07-13 15:38:45.820 ,4,1,0.,4.8,3712.,4.8,0.,4.8,0.,4.8
1979-07-13 15:38:50.620 ,7,1,0.,4.8,3712.,4.8,0.,4.8,0.,4.8
1979-07-13 15:38:55.420 ,7,1,0.,4.8,3264.,4.8,0.,4.8,0.,4.8
1979-07-13 15:39:00.220 ,7,1,0.,4.8,2752.,4.8,0.,4.8,0.,4.8
1979-07-13 15:39:05.020 ,7,1,0.,4.8,1856.,4.8,0.,4.8,0.,4.8
1979-07-13 15:39:09.820 ,7,1,0.,4.8,2240.,4.8,0.,4.8,0.,4.8
1979-07-13 15:39:14.620 ,3,1,0.,4.8,2496.,4.8,0.,4.8,0.,4.8
1979-07-13 15:39:19.420 ,3,1,0.,4.8,3136.,4.8,0.,4.8,0.,4.8
1979-07-13 15:39:24.220 ,3,1,0.,4.8,3648.,4.8,0.,4.8,0.,4.8
1979-07-13 15:39:29.020 ,3,1,0.,4.8,3136.,4.8,0.,4.8,0.,4.8
1979-07-13 15:39:33.820 ,3,1,0.,4.8,1920.,4.8,0.,4.8,0.,4.8
1979-07-13 15:39:38.620 ,0,1,0.,4.8,1984.,4.8,0.,4.8,0.,4.8
1979-07-13 15:39:43.420 ,0,1,0.,4.8,2048.,4.8,0.,4.8,0.,4.8
1979-07-13 15:39:48.220 ,0,1,0.,4.8,2432.,4.8,0.,4.8,0.,4.8
1979-07-13 15:39:53.020 ,0,1,0.,4.8,3072.,4.8,0.,4.8,0.,4.8
1979-07-13 15:39:57.820 ,0,1,0.,4.8,3200.,4.8,0.,4.8,0.,4.8
1979-07-13 15:40:02.620 ,4,1,0.,4.8,2496.,4.8,0.,4.8,0.,4.8
1979-07-13 15:40:07.420 ,4,1,0.,4.8,2240.,4.8,0.,4.8,0.,4.8
1979-07-13 15:40:12.220 ,4,1,0.,4.8,2048.,4.8,0.,4.8,0.,4.8
1979-07-13 15:40:17.020 ,4,1,0.,4.8,2368.,4.8,0.,4.8,0.,4.8
1979-07-13 15:40:21.820 ,4,1,0.,4.8,4032.,4.8,0.,4.8,0.,4.8
1979-07-13 15:40:26.620 ,7,1,0.,4.8,3840.,4.8,0.,4.8,0.,4.8
1979-07-13 15:40:31.420 ,7,1,0.,4.8,3648.,4.8,0.,4.8,0.,4.8
1979-07-13 15:40:36.220 ,7,1,0.,4.8,2752.,4.8,0.,4.8,0.,4.8
1979-07-13 15:40:41.020 ,7,1,0.,4.8,2304.,4.8,0.,4.8,0.,4.8
1979-07-13 15:40:45.820 ,7,1,0.,4.8,2304.,4.8,0.,4.8,0.,4.8
1979-07-13 15:40:50.620 ,3,1,0.,4.8,3136.,4.8,0.,4.8,0.,4.8
1979-07-13 15:40:55.420 ,3,1,0.,4.8,4032.,4.8,0.,4.8,0.,4.8
1979-07-13 15:41:00.220 ,3,1,0.,4.8,448.,4.8,0.,4.8,0.,4.8
1979-07-13 15:41:05.020 ,3,1,0.,4.8,51.,4.8,1.,4.8,0.,4.8
1979-07-13 15:41:09.820 ,3,1,0.,4.8,2816.,4.8,0.,4.8,0.,4.8
1979-07-13 15:41:14.620 ,0,1,0.,4.8,2560.,4.8,0.,4.8,0.,4.8
1979-07-13 15:41:19.420 ,0,1,0.,4.8,2624.,4.8,0.,4.8,0.,4.8
1979-07-13 15:41:24.220 ,0,1,0.,4.8,3136.,4.8,0.,4.8,0.,4.8